Theta_e
344 343 345 346 345 345 343 342 343 343 342 343 343 341 340 339 338 336 337 338 340 343 345 344 342 341 340 343 343 343 343 343 344 347 346 346 346 343 342 344 342 342 341 341 343 343 343 342 344 344 344 344 344 344 343 345 346 346 346 346 346 346 346 346 346 345 345 344 345 344 344 344 344 346 345 345 346 344 342 342 342 339 339 341 343
342 344 345 346 346 345 345 343 340 339 338 338 337 338 338 338 337 338 339 342 346 345 344 343 342 341 339 340 342 340 341 341 341 345 346 346 346 344 344 345 345 345 343 343 342 343 344 343 344 343 343 343 343 342 342 343 344 344 344 345 345 345 346 346 345 345 344 344 345 343 343 343 344 345 345 345 345 344 341 342 341 339 339 343 341
344 345 345 346 347 346 345 344 343 342 341 340 340 341 342 341 339 338 340 347 346 345 344 342 340 339 340 340 340 340 338 339 342 343 345 345 345 343 343 342 345 345 344 345 344 344 344 343 343 343 343 342 342 341 341 341 341 341 343 344 344 344 344 345 345 344 343 343 343 342 341 342 341 342 343 343 345 343 340 341 340 339 336 339 341
343 344 345 346 346 346 345 345 344 341 340 339 339 338 338 338 340 340 340 346 346 345 344 342 341 339 340 340 340 339 338 341 341 343 344 344 344 343 342 340 340 340 340 339 340 340 341 342 342 343 342 342 343 342 342 341 341 341 341 341 343 343 343 343 344 343 343 342 342 340 339 339 338 340 343 344 342 342 338 339 339 339 341 341 340
343 345 344 345 346 346 345 343 343 342 342 341 339 337 337 339 339 340 340 345 345 345 344 342 340 339 341 341 340 340 340 340 340 341 344 342 343 345 345 344 343 340 339 340 341 340 340 341 341 341 341 341 341 341 341 342 342 341 342 343 343 342 342 342 341 343 343 342 341 339 337 337 338 339 342 341 342 339 338 338 338 339 339 339 340
343 344 344 345 345 346 345 345 344 342 341 341 341 341 340 339 340 340 340 340 345 344 344 342 340 340 340 339 339 340 342 342 341 343 344 343 344 344 345 344 345 344 343 343 343 342 341 342 342 341 341 340 340 340 341 342 341 341 342 341 341 341 341 342 342 343 341 340 339 337 337 336 336 337 339 342 342 338 339 338 338 339 337 337 337
343 344 344 345 345 345 344 345 343 342 342 342 341 339 338 338 338 339 340 342 345 344 344 344 341 340 342 342 341 341 341 341 341 343 344 344 344 343 343 343 342 342 342 341 341 341 342 343 342 343 343 342 342 341 342 342 342 342 341 340 340 340 340 341 341 340 340 337 336 336 336 335 336 339 341 342 341 339 338 339 338 337 336 336 335
345 345 345 345 345 344 344 345 345 343 342 341 342 342 339 338 339 339 339 340 345 344 344 343 340 339 339 340 341 339 339 339 341 342 342 342 341 341 341 341 341 341 341 341 341 341 341 342 342 343 342 341 341 341 341 341 341 340 340 340 340 340 340 341 339 339 338 335 336 335 335 334 334 334 338 339 340 339 339 338 338 336 336 335 334
343 344 344 346 345 343 345 345 345 344 343 341 342 341 339 339 340 340 340 340 344 344 343 343 341 340 340 341 339 338 338 338 339 340 340 340 340 340 339 340 343 343 343 343 343 342 341 342 342 342 342 341 341 341 340 341 340 340 340 339 339 340 340 340 339 337 335 335 334 334 334 333 333 333 336 337 337 336 335 333 334 335 335 333 332
342 343 344 346 346 342 344 345 345 345 343 342 341 341 340 340 339 340 339 340 344 343 343 343 342 341 341 339 339 339 338 337 338 339 339 339 340 340 339 339 340 340 340 341 341 341 341 341 341 341 341 341 341 340 340 340 339 339 339 338 338 339 339 339 337 335 333 334 333 333 334 335 332 332 334 336 335 334 332 332 331 331 330 331 331
342 342 344 345 347 342 346 346 345 343 343 342 342 340 340 340 340 340 340 340 343 343 343 343 343 340 340 339 338 338 337 337 336 339 341 342 342 341 340 340 339 339 339 340 341 341 342 342 341 341 341 340 340 339 339 339 338 338 338 338 338 339 339 337 335 333 333 333 332 332 333 335 331 331 335 334 335 333 331 330 330 330 330 330 330
341 343 344 346 345 342 345 345 345 345 344 342 342 343 342 340 339 340 340 339 339 343 343 343 343 341 340 340 338 337 336 335 337 338 340 340 342 341 340 340 340 340 340 340 340 340 341 341 341 341 340 339 339 338 338 338 338 338 338 338 338 338 336 335 333 332 332 332 330 330 330 329 329 330 333 333 333 332 331 330 330 331 331 330 329
341 342 344 346 346 340 344 345 345 345 344 344 343 342 341 341 340 340 340 339 340 343 343 342 342 342 340 339 338 337 336 335 335 337 339 340 340 340 340 340 340 339 340 340 340 340 340 340 341 340 340 339 338 338 338 337 336 336 336 336 337 337 335 334 332 332 331 331 330 330 329 328 328 331 331 333 333 331 331 329 330 330 330 329 329
342 342 344 346 345 346 341 344 345 345 345 343 341 341 341 342 341 339 339 339 340 342 342 342 342 342 341 340 338 337 336 335 334 336 337 338 339 339 339 338 338 339 339 339 340 339 339 340 339 339 339 338 337 337 337 336 336 336 335 335 337 335 332 331 331 329 329 329 328 328 328 328 328 331 331 331 330 329 328 328 329 329 328 328 327
341 344 345 345 345 346 342 340 343 343 344 343 343 343 342 342 340 339 339 339 340 342 341 341 341 341 340 339 338 337 336 335 334 334 337 337 337 337 337 337 337 338 338 338 338 339 338 339 339 338 338 338 337 336 336 335 335 334 334 333 334 332 330 329 329 329 328 327 327 327 327 326 328 329 329 329 328 328 328 327 328 327 326 326 326
344 344 345 344 345 346 346 343 339 341 341 343 343 343 342 341 340 339 339 339 339 339 341 341 341 341 339 338 337 336 336 335 335 337 339 338 336 337 337 337 337 337 337 338 338 338 338 338 338 337 337 337 337 336 335 334 333 332 332 333 330 330 328 328 329 328 326 326 326 326 325 325 328 328 329 329 329 329 328 327 327 326 326 326 325
344 345 344 344 345 345 344 344 341 335 337 338 339 340 341 341 341 340 340 339 339 340 340 341 341 341 339 338 337 336 337 337 337 339 340 338 337 337 337 336 335 335 335 336 337 337 337 337 337 337 336 336 335 335 334 333 332 331 331 331 330 329 327 326 328 326 323 325 324 325 324 325 327 327 328 328 326 327 325 326 326 325 325 325 323
344 344 342 343 344 344 344 344 345 345 344 339 334 337 339 340 340 340 340 340 340 340 340 340 340 339 339 337 337 336 336 336 336 337 339 338 337 338 336 335 335 334 334 335 336 337 336 336 336 336 336 335 334 334 333 332 331 330 331 329 328 327 325 324 326 325 324 327 325 326 325 327 326 326 327 327 326 325 324 325 324 324 323 323 323
342 341 342 342 342 343 344 345 344 344 344 343 343 341 335 336 337 337 338 338 337 336 335 335 334 334 334 332 332 330 329 330 331 333 335 334 333 332 335 335 334 334 333 335 336 336 336 336 335 335 335 334 333 333 332 331 330 329 328 328 326 325 324 325 326 325 326 325 324 324 324 327 327 328 327 325 326 325 324 324 325 326 324 321 321
341 341 340 342 343 343 344 344 344 344 344 343 342 341 334 332 335 335 334 334 333 332 331 330 327 327 327 328 327 330 329 332 328 332 329 331 330 331 332 335 334 334 333 334 334 335 335 335 335 335 334 333 332 331 330 330 329 329 328 326 325 321 328 327 327 326 325 323 324 325 329 328 326 327 327 326 324 325 323 322 325 324 321 322 324
337 339 340 340 342 341 342 343 343 343 344 343 343 341 339 331 331 328 328 329 329 329 327 323 321 321 324 324 326 331 330 330 333 333 328 333 323 326 331 334 334 333 333 332 332 333 334 334 334 333 331 329 327 327 327 329 328 328 326 326 320 331 327 327 327 325 324 324 324 324 330 328 326 327 326 325 324 323 322 324 325 323 321 323 322
335 337 339 340 340 341 342 342 342 343 343 343 343 342 340 336 339 337 336 330 327 325 330 334 332 333 325 330 333 331 331 331 331 333 333 333 330 324 326 330 333 333 333 332 331 331 332 332 332 331 329 328 326 329 327 323 323 324 324 320 332 327 328 327 326 325 325 324 322 326 327 325 326 326 324 324 324 323 321 324 324 322 321 320 320
334 336 337 339 340 340 341 340 341 343 343 343 343 342 340 340 339 338 336 331 332 334 336 334 334 333 332 332 329 329 331 331 331 335 331 322 328 323 325 328 329 329 329 329 329 329 329 329 329 328 327 326 329 330 329 328 327 319 319 329 328 328 327 327 326 325 324 322 323 326 327 325 324 325 326 325 322 321 321 323 321 320 320 321 320
334 335 336 338 339 340 340 340 341 343 341 342 343 342 341 341 339 339 337 336 335 336 335 335 335 335 334 332 330 329 331 331 326 326 329 332 327 321 321 322 323 324 324 326 325 324 325 323 323 323 324 325 330 329 329 328 327 327 329 327 327 327 327 326 326 324 324 323 323 326 327 324 323 324 324 322 322 320 320 323 321 320 319 319 319
334 336 336 337 338 339 340 340 341 342 342 340 341 340 341 340 340 338 337 336 335 335 335 335 334 334 333 332 331 329 330 329 331 331 330 329 330 331 331 331 330 329 323 328 327 326 325 325 324 323 328 329 329 329 329 328 327 327 327 327 327 327 327 327 325 324 324 323 323 322 326 325 323 324 323 323 322 320 320 320 320 319 319 319 318
335 334 334 336 338 338 339 339 340 340 341 341 340 340 340 339 339 338 337 336 336 335 334 334 334 334 333 333 329 329 329 328 330 329 330 328 328 328 328 328 329 328 328 327 325 325 325 325 326 326 326 327 327 328 328 327 327 326 325 326 326 326 326 326 325 324 323 322 322 322 324 325 323 323 323 322 321 319 318 322 319 319 319 318 317
334 334 336 337 337 338 339 339 338 339 340 341 340 341 340 340 338 338 336 335 335 334 333 333 334 334 333 332 330 328 327 328 329 330 329 328 327 327 326 327 326 325 325 325 325 324 324 324 325 325 326 326 326 327 327 327 327 325 325 326 326 325 326 326 325 324 324 322 321 320 323 326 322 321 323 322 321 318 321 320 319 318 318 317 317
334 334 336 336 337 338 339 338 338 339 339 340 339 339 340 340 339 337 337 333 334 333 333 333 334 333 333 331 329 329 327 326 327 328 328 328 328 327 327 327 326 326 327 326 324 323 324 324 325 325 324 325 325 325 325 325 325 325 324 324 323 323 324 325 325 324 323 322 323 321 321 323 325 321 321 321 322 319 322 321 318 319 318 317 316
332 333 335 336 337 338 339 338 338 338 339 339 339 339 339 339 338 336 335 332 334 334 333 334 333 332 333 332 331 330 328 327 326 327 327 327 328 328 327 326 326 326 326 325 325 323 323 324 323 323 324 325 324 324 324 324 324 324 323 322 322 322 323 324 325 325 323 322 322 320 319 321 324 324 322 321 320 319 321 321 318 320 318 317 316
333 333 334 335 337 338 338 338 337 338 338 339 338 339 339 339 337 336 336 333 335 335 334 333 333 332 331 332 331 331 329 327 327 326 326 325 327 327 326 326 325 326 325 324 324 324 323 323 323 324 324 324 324 324 323 323 323 322 321 320 320 320 322 322 322 324 322 322 321 321 317 320 323 323 321 321 320 319 322 320 319 320 317 317 316
334 333 334 334 336 337 337 338 338 338 339 338 338 338 339 339 338 337 337 334 335 335 334 333 333 333 332 332 332 331 330 329 327 326 325 325 326 326 326 326 325 325 324 324 323 324 324 323 323 323 323 323 323 322 322 321 320 318 316 316 316 317 317 318 319 322 324 321 320 321 322 315 319 323 324 319 319 318 320 321 320 319 317 317 316
333 333 334 335 334 336 336 337 338 338 338 338 338 338 338 339 339 338 337 336 337 335 334 334 331 333 334 333 332 331 330 329 329 327 325 324 323 324 324 324 324 324 324 323 322 323 323 323 323 323 323 323 322 320 322 320 318 316 315 314 314 314 314 315 316 315 315 317 322 320 321 321 314 317 322 323 320 318 319 318 318 319 318 317 317
334 335 335 335 334 334 335 337 337 337 338 337 338 338 338 338 339 338 337 338 337 336 334 334 334 334 334 333 333 332 331 330 329 328 325 324 324 323 323 323 323 323 323 323 322 322 321 321 321 321 321 321 320 319 319 319 316 314 313 312 311 310 309 310 311 312 313 315 319 320 320 320 320 313 314 315 321 320 319 319 318 321 319 317 316
333 334 335 334 335 336 336 338 337 336 337 336 337 337 337 338 338 339 338 338 337 336 335 334 334 334 334 334 333 332 331 330 330 328 327 325 324 323 323 322 322 323 322 322 320 321 320 319 318 318 316 318 317 318 316 316 314 312 310 307 306 307 307 309 309 311 312 314 316 318 319 318 318 318 319 313 315 318 319 318 317 316 318 318 316
332 333 334 335 335 336 335 335 337 336 335 334 335 336 338 337 337 338 338 339 338 337 336 335 334 334 334 333 333 332 331 331 331 329 327 326 324 323 322 322 322 323 321 320 320 320 320 318 317 317 317 317 318 317 317 316 312 310 308 307 306 305 305 306 307 309 310 310 310 312 313 318 317 318 319 317 311 313 316 322 318 317 317 316 318
332 333 334 334 334 335 336 335 335 334 336 335 334 335 336 337 337 333 338 338 336 336 335 334 334 334 333 333 333 333 332 331 331 330 328 326 324 323 322 322 322 321 320 319 320 319 319 318 318 318 316 316 317 316 316 315 311 309 307 305 303 302 303 304 304 304 304 306 309 310 311 313 316 317 315 317 316 316 312 316 321 317 316 316 317
332 333 333 333 333 334 334 334 334 334 334 332 334 334 335 335 335 338 338 337 336 335 335 335 335 334 334 333 333 333 332 332 331 331 328 327 325 324 323 323 322 319 318 318 318 318 317 316 316 317 317 316 315 314 313 311 309 305 303 301 300 300 301 300 301 301 303 304 306 307 308 311 308 305 312 314 316 315 311 311 318 320 318 318 316
333 333 334 333 332 333 333 333 334 335 335 334 334 333 334 335 335 335 336 337 337 337 336 336 335 335 334 332 332 332 331 331 331 331 329 328 327 325 324 322 320 317 317 317 316 316 315 314 313 313 314 314 312 311 310 307 305 303 301 299 299 298 297 297 297 298 299 301 303 304 303 304 305 306 307 309 310 317 312 310 312 313 312 316 317
331 332 332 333 333 333 333 332 332 333 334 335 336 335 334 334 334 334 335 336 336 337 336 335 335 334 333 332 332 331 329 331 331 330 328 326 326 325 323 319 316 315 315 313 313 311 310 311 311 310 311 310 310 312 309 305 303 300 298 296 295 295 296 296 296 296 297 297 297 298 300 301 301 302 302 304 306 309 312 311 312 314 313 311 316
328 329 330 331 331 331 332 332 331 332 332 334 335 334 334 333 332 334 334 335 335 334 335 333 333 333 332 332 331 331 330 329 330 328 327 326 325 322 318 316 313 312 311 310 310 309 309 309 310 310 308 306 306 305 304 302 300 299 297 296 295 295 296 296 295 295 295 295 296 296 297 298 298 299 300 302 304 306 308 311 310 313 313 310 310
327 327 327 329 330 330 330 330 331 331 331 330 331 331 331 331 332 332 331 333 332 333 333 333 333 333 333 332 332 332 332 329 328 328 326 323 324 322 319 314 313 311 310 310 310 310 310 310 309 308 307 305 304 303 302 302 300 299 298 297 296 296 294 293 293 294 294 294 294 294 295 295 297 298 300 300 301 303 305 307 307 309 310 310 308
325 326 326 327 328 329 329 329 329 329 329 330 330 329 329 328 329 330 331 331 330 329 330 332 332 332 332 332 331 332 331 330 328 328 327 326 324 321 318 314 311 310 310 311 311 310 310 309 308 306 307 305 303 302 301 302 299 301 301 299 299 298 295 295 294 293 293 294 293 292 294 295 296 298 298 298 299 299 300 301 302 304 307 308 308
323 324 325 326 327 328 328 328 328 328 328 329 329 329 330 330 329 329 331 331 333 331 332 331 332 330 331 332 331 331 331 330 329 327 327 326 323 320 317 314 311 311 309 310 311 310 309 308 307 306 304 305 305 302 301 304 303 303 303 300 298 298 299 295 296 294 294 293 293 292 294 294 295 296 296 295 296 297 298 297 298 301 304 304 305
321 322 323 324 326 327 327 327 327 328 328 328 328 330 330 331 331 330 330 331 331 333 333 333 332 331 330 330 330 330 329 328 328 327 326 324 323 321 319 317 313 312 311 309 309 308 308 307 306 306 306 303 303 301 301 301 305 303 298 298 298 296 296 300 301 301 299 296 293 293 293 294 294 295 294 292 294 295 296 296 297 298 300 302 304
316 320 322 323 324 325 327 327 327 326 327 327 327 329 329 328 328 330 330 329 327 329 331 330 331 329 328 326 326 327 329 328 328 328 326 324 323 323 321 317 316 312 311 310 308 307 307 307 307 306 306 305 303 301 300 301 302 306 306 297 293 293 297 299 300 301 294 296 295 294 293 293 293 293 293 293 294 294 294 294 294 296 298 300 301
313 316 321 323 324 325 326 327 327 326 326 326 326 326 326 325 324 324 322 322 322 323 323 325 326 326 325 327 327 327 327 328 328 328 327 324 325 325 323 319 315 312 310 310 309 309 308 308 308 308 306 306 306 303 299 299 301 303 306 307 305 303 300 300 299 297 293 295 297 294 292 292 293 293 293 292 293 292 292 292 293 293 295 296 298
311 315 317 321 323 324 325 326 326 326 326 326 325 324 323 323 323 322 322 321 320 322 324 326 326 326 326 326 327 327 327 325 324 325 325 324 324 323 322 319 316 312 309 309 309 309 310 309 309 307 306 305 305 304 304 299 298 300 302 303 299 292 296 298 297 298 296 294 291 293 292 292 292 292 292 292 292 292 292 292 292 293 293 294 295
311 312 313 316 320 322 324 325 325 325 326 325 324 323 322 322 322 321 321 321 321 322 324 324 326 326 325 325 327 327 327 326 325 324 324 323 322 322 322 319 316 314 310 309 309 310 310 309 308 307 307 306 305 304 304 303 298 298 299 300 300 298 294 292 293 297 297 294 295 291 291 292 291 291 291 291 292 292 292 292 291 291 291 292 294
310 311 312 315 317 320 322 324 324 324 324 324 323 322 321 322 322 321 320 321 322 323 325 325 324 325 325 325 325 326 327 325 325 325 324 324 321 322 322 320 318 315 311 311 309 309 308 308 307 305 305 305 305 305 305 304 302 302 299 298 299 298 297 294 293 290 291 293 295 298 297 290 290 290 290 290 291 291 292 292 291 290 290 291 292
311 313 313 314 315 317 319 321 322 322 323 322 321 321 321 321 321 320 320 320 321 323 324 324 324 324 323 324 324 324 324 324 323 323 324 323 322 321 320 319 317 316 311 310 309 308 308 308 307 306 305 304 305 304 304 305 304 303 302 301 297 297 297 295 293 292 290 291 293 296 300 295 289 292 291 291 290 291 291 291 290 290 290 291 292
310 311 312 314 315 317 318 319 320 321 321 320 320 319 320 320 320 320 320 321 321 322 321 322 323 323 322 322 322 323 324 324 324 323 322 323 322 321 320 320 319 317 313 310 309 308 309 308 308 308 306 304 303 303 303 303 304 304 302 302 300 299 298 296 296 295 293 292 289 289 292 295 294 293 295 292 291 291 290 290 290 290 289 289 291
Wind_Speed
9 11 10 12 10 11 11 11 10 11 10 10 9 10 10 10 9 9 8 10 11 13 14 13 13 13 12 16 16 15 15 13 16 16 15 15 16 16 17 17 16 15 15 16 16 17 16 16 17 17 18 18 18 20 20 19 21 21 21 21 21 21 20 21 20 21 20 21 21 20 19 19 20 21 21 22 22 21 18 20 18 17 15 18 22
12 10 10 11 11 11 11 11 11 11 10 10 9 10 10 10 9 9 8 11 12 12 13 13 12 13 12 15 15 14 14 13 14 17 16 15 16 17 16 16 17 17 18 17 17 17 17 17 16 17 19 19 19 20 19 20 20 20 20 21 19 18 17 17 19 19 20 20 22 23 22 21 22 22 22 23 23 22 20 21 21 16 13 22 23
12 11 10 11 10 10 11 11 11 10 10 10 9 9 9 8 8 8 10 15 13 12 12 12 12 11 14 15 13 13 12 13 14 14 16 16 16 16 16 16 17 18 18 18 18 18 18 17 17 17 17 17 17 17 19 19 19 19 20 19 18 17 17 15 15 16 18 20 20 21 22 23 23 22 23 23 25 24 23 24 22 19 16 24 23
13 10 11 11 9 10 11 11 11 11 10 10 9 9 9 9 8 9 8 14 12 11 12 13 12 11 14 15 14 13 13 14 14 14 14 15 16 16 16 16 15 16 16 17 17 17 16 16 17 17 17 17 17 18 18 18 19 20 19 20 18 18 17 16 14 14 14 14 15 15 12 13 16 21 22 25 25 24 23 24 25 25 24 24 25
12 11 11 11 11 10 12 12 11 11 10 10 9 9 9 10 8 8 8 11 11 11 13 13 13 12 15 14 14 13 13 13 13 15 15 14 16 16 16 15 17 17 16 16 17 17 17 17 17 17 16 17 17 17 18 18 19 19 19 18 17 17 16 14 13 13 12 13 14 14 13 14 11 20 23 24 24 22 23 23 23 23 25 26 25
11 11 11 11 11 11 10 11 11 11 10 10 10 9 8 7 7 6 7 11 14 12 11 14 13 13 13 13 14 13 14 13 13 14 15 15 18 16 17 16 16 18 18 17 16 17 17 17 17 17 17 17 17 17 18 18 19 19 18 17 17 16 14 11 9 7 13 13 14 12 13 13 12 11 20 22 23 21 22 23 22 22 23 24 23
12 9 10 11 9 11 9 11 12 11 10 10 10 9 9 8 8 10 10 11 13 10 10 13 12 11 15 15 14 13 13 12 13 14 14 15 16 15 15 15 16 16 16 16 16 16 17 17 17 17 17 17 18 18 18 19 18 17 16 17 17 16 15 13 12 12 12 12 11 11 12 13 10 7 18 24 23 22 23 22 20 20 21 21 21
10 8 10 10 10 11 10 12 12 11 11 10 10 10 9 9 9 9 9 10 12 10 10 10 12 12 12 13 13 13 12 12 14 14 14 14 14 13 14 14 15 16 15 16 16 16 16 16 16 16 17 17 17 18 18 18 17 16 16 15 14 12 11 12 14 13 13 12 11 10 11 12 11 9 17 19 21 21 22 22 20 19 20 20 17
9 10 10 10 11 12 10 11 12 12 11 10 9 9 9 8 9 8 9 10 14 12 10 9 10 10 13 14 13 12 11 11 12 13 13 13 14 14 13 15 16 16 16 16 16 16 16 15 16 17 17 17 17 17 17 17 16 16 16 16 14 14 13 10 10 13 12 12 13 11 12 13 13 12 18 20 20 19 19 17 17 21 21 19 20
10 9 10 10 11 12 10 11 12 12 11 10 9 9 8 8 8 9 6 9 12 12 10 8 7 13 12 12 12 12 12 11 11 13 12 12 13 13 13 13 12 13 14 15 15 15 15 15 16 16 16 17 16 17 16 15 15 15 14 14 14 12 10 11 14 14 12 14 15 15 13 14 13 12 18 21 21 21 21 17 16 15 15 19 21
10 9 9 11 13 11 10 11 11 12 11 11 10 9 8 8 7 8 10 9 13 11 11 10 8 11 12 13 12 11 11 11 10 12 13 13 14 13 13 12 12 13 13 14 14 14 15 15 16 16 16 16 16 15 16 15 14 14 14 13 13 12 12 11 13 11 12 13 13 12 14 15 11 11 18 20 20 20 18 20 19 18 19 19 19
9 8 9 10 12 11 9 10 11 12 11 11 10 9 8 8 7 9 8 8 10 13 11 11 10 9 12 12 12 11 11 10 10 11 12 12 12 13 13 13 13 12 13 13 13 14 14 15 15 15 15 15 15 15 15 15 13 13 12 12 13 12 11 12 12 10 12 13 13 12 13 13 12 13 19 19 19 20 19 19 19 19 19 18 18
9 8 10 11 11 9 9 9 10 11 12 12 11 9 8 7 7 8 9 8 10 13 11 11 11 9 12 12 11 10 10 9 10 11 12 12 12 12 12 13 12 13 12 12 13 13 13 14 14 14 14 14 15 15 14 13 12 12 11 10 9 9 11 13 10 11 10 11 10 12 12 11 11 17 17 18 19 19 18 18 18 19 19 19 17
9 8 10 10 10 9 9 9 9 10 10 11 11 10 9 8 7 8 9 9 10 12 12 12 10 10 11 11 10 10 10 9 8 10 10 12 12 12 12 12 12 12 12 12 12 12 13 13 13 14 14 14 14 14 13 12 12 10 9 9 7 12 12 10 11 10 10 11 10 11 11 9 11 17 17 17 18 18 17 18 18 18 17 17 17
9 9 9 10 11 10 9 8 8 9 9 10 10 10 9 8 7 8 8 8 9 12 12 11 11 10 11 11 10 10 9 9 8 8 11 10 10 10 11 11 12 11 11 11 11 11 11 12 12 13 13 13 13 12 12 12 11 10 9 9 8 7 7 9 8 8 9 10 10 11 10 9 14 15 16 16 16 16 16 16 16 17 17 16 16
9 8 9 10 11 11 10 9 8 9 9 9 9 9 9 9 8 8 8 8 7 10 12 11 11 11 11 11 10 9 9 9 8 8 6 8 9 10 10 11 11 11 11 11 11 11 11 12 12 12 12 12 12 11 11 11 10 9 9 8 10 11 10 10 7 7 8 9 9 9 9 10 15 16 15 16 16 15 16 16 16 15 15 16 16
9 8 9 9 11 11 10 10 9 10 9 9 8 8 8 8 7 8 8 8 8 9 10 12 11 11 11 10 10 9 9 9 9 10 9 10 12 10 10 10 10 10 10 10 11 11 12 11 11 12 12 12 11 11 11 11 10 9 8 8 9 10 12 8 6 8 9 7 7 8 8 8 12 15 15 14 15 15 15 15 15 15 15 16 15
9 9 9 8 9 10 10 10 11 10 9 9 9 8 7 7 7 7 6 7 9 9 10 11 11 10 9 9 8 8 9 9 9 8 9 11 10 8 9 10 10 9 9 10 11 10 11 11 11 11 11 12 11 10 11 11 9 8 7 8 9 10 9 10 8 8 9 7 9 7 8 11 13 12 14 14 14 13 14 15 13 13 14 15 14
9 9 8 8 9 9 9 10 10 10 10 8 8 8 8 7 7 7 7 7 7 9 10 10 10 10 9 9 9 9 9 9 9 9 10 11 10 9 8 9 9 9 8 10 11 11 11 10 11 11 12 12 10 9 9 10 9 7 7 7 6 6 10 6 6 8 9 6 8 7 7 11 12 13 12 13 14 15 13 12 15 17 16 13 14
9 9 9 8 8 9 8 8 9 10 9 9 9 9 8 8 8 8 8 8 8 9 10 10 10 10 9 9 9 8 7 7 9 8 8 8 8 8 8 9 9 9 8 10 10 10 10 10 11 11 12 11 9 8 8 8 7 6 5 3 4 2 5 5 4 10 6 5 9 7 6 9 12 12 12 12 12 14 14 12 15 15 12 14 17
8 9 9 8 8 8 9 8 9 9 9 9 9 9 8 9 7 8 8 8 8 9 9 9 9 8 8 8 7 6 6 6 6 7 7 7 8 10 9 9 9 8 8 8 8 8 9 10 10 12 12 11 8 8 8 7 5 4 2 2 4 1 5 6 5 7 6 5 8 6 6 10 12 12 12 12 13 11 11 14 17 14 13 15 14
9 8 9 10 9 8 9 9 8 9 8 7 7 8 8 9 8 7 6 6 6 8 7 7 7 6 6 6 4 4 4 4 6 7 7 8 8 10 10 9 9 8 7 8 7 7 8 9 10 10 10 9 5 4 4 5 4 4 5 7 3 5 4 5 6 6 6 5 6 7 10 9 13 12 9 10 11 13 10 15 14 13 12 13 13
9 9 9 11 9 8 9 9 8 9 9 8 7 8 10 7 8 7 6 6 7 7 6 6 5 5 5 4 3 3 4 4 4 6 8 11 9 11 11 11 11 12 12 12 9 9 9 8 8 7 6 5 4 4 4 3 2 3 6 5 3 3 5 6 6 6 6 5 7 3 7 10 11 9 12 12 11 10 10 15 12 12 13 14 13
10 10 10 9 10 9 10 9 9 8 8 7 6 8 8 7 7 6 6 6 6 5 5 5 4 4 4 3 3 4 4 5 8 12 10 7 7 11 12 12 11 11 12 9 10 9 9 9 6 3 2 4 4 4 5 4 4 4 2 0 4 4 4 4 4 5 5 6 5 5 10 12 9 12 11 8 11 9 9 14 11 11 10 11 12
10 10 9 10 12 11 10 10 9 9 9 7 7 7 7 7 6 6 6 6 6 5 5 4 4 4 3 2 3 4 4 5 6 6 6 6 6 6 6 5 6 5 5 4 3 3 2 2 2 4 5 4 4 5 5 5 5 4 2 2 3 4 4 2 2 4 4 5 5 4 6 10 8 9 8 9 8 8 8 11 11 10 11 11 11
9 10 10 10 12 11 11 10 10 10 9 8 8 7 7 7 6 6 6 5 5 5 5 5 4 4 4 3 3 3 4 5 6 6 4 5 5 5 5 5 4 4 5 3 3 3 3 4 4 5 5 4 4 4 5 5 5 4 3 2 3 4 4 4 4 4 4 4 3 3 10 9 8 9 10 9 8 8 7 14 8 11 10 10 10
9 10 10 10 11 12 12 11 11 10 11 9 7 7 7 7 7 6 6 6 5 5 5 5 5 5 4 3 4 4 3 4 4 5 4 4 4 4 3 4 4 4 5 3 3 3 3 4 5 4 4 4 4 4 4 5 4 4 3 3 2 3 1 3 5 4 4 5 4 1 6 4 8 7 11 9 7 4 10 10 7 9 9 9 9
10 11 10 11 10 12 12 12 11 11 10 10 9 8 7 8 7 6 5 5 5 6 5 5 5 5 5 4 3 3 3 3 4 4 4 4 4 4 3 3 4 3 2 2 3 3 3 3 4 4 3 4 5 5 2 1 2 4 4 4 3 3 2 1 5 6 5 5 4 2 2 1 8 6 7 8 11 8 12 10 6 8 7 8 8
12 12 11 11 12 11 13 13 11 12 10 10 10 8 8 8 7 7 8 5 6 6 6 5 5 5 5 5 4 4 3 3 4 4 4 4 4 4 4 3 3 3 3 3 4 4 4 4 3 3 4 4 4 4 3 3 4 4 4 3 3 3 2 1 1 5 5 5 6 4 1 1 3 10 12 9 7 6 10 8 6 11 6 8 6
12 12 12 12 11 13 13 13 12 11 10 10 9 9 8 8 8 9 9 7 7 6 6 6 6 6 5 6 5 5 4 3 4 4 4 4 4 4 4 4 4 4 4 4 4 4 4 4 4 4 5 5 5 4 3 4 5 3 2 2 2 3 3 2 1 1 6 5 5 5 3 4 2 3 5 9 8 7 11 10 7 12 8 7 7
11 12 12 11 11 13 13 13 13 10 10 10 9 9 9 9 9 8 8 8 7 6 5 6 6 7 6 7 6 6 5 5 4 4 4 4 4 5 5 4 4 4 4 4 4 4 4 4 4 4 4 4 5 4 5 5 3 2 1 2 1 1 2 2 1 1 1 6 5 6 4 2 4 4 5 6 8 8 11 12 10 8 5 8 6
12 12 11 10 11 14 14 14 14 12 11 11 9 9 9 9 9 8 8 8 8 7 8 7 7 7 7 8 8 7 6 6 6 5 5 5 5 5 5 5 5 5 4 4 4 4 4 4 4 4 4 4 4 4 4 4 4 3 2 1 1 1 0 0 1 2 4 4 2 6 6 4 2 3 5 9 10 9 9 7 9 10 9 7 8
9 11 11 11 13 13 13 13 14 13 13 13 10 10 9 9 9 9 8 8 9 8 8 7 8 7 7 8 8 8 8 7 6 7 6 5 5 6 6 6 5 5 5 5 5 4 3 3 3 2 3 4 4 4 3 3 4 3 3 2 1 1 2 3 2 1 2 1 1 6 7 7 6 4 2 4 6 9 12 12 10 14 11 8 9
9 9 12 13 11 8 9 10 12 14 13 13 11 10 10 8 9 9 8 9 9 9 8 7 8 8 8 9 8 9 8 7 7 8 7 6 6 6 6 6 5 5 4 4 5 4 4 4 4 4 4 4 4 4 4 4 3 3 2 2 2 2 2 1 1 0 1 2 2 3 3 5 6 5 3 1 2 1 4 11 9 10 13 13 8
9 10 12 13 13 10 9 10 11 14 11 12 13 12 10 10 10 9 9 9 9 9 8 6 7 8 8 7 9 9 9 8 8 7 7 6 6 6 7 6 5 5 5 5 5 5 5 5 5 5 5 5 4 4 5 4 4 4 3 2 2 1 1 2 2 1 1 1 2 2 2 2 4 6 5 4 2 1 2 6 12 12 13 12 14
12 11 11 12 13 12 11 10 11 14 12 12 12 12 12 11 9 8 8 9 9 5 4 5 7 8 8 7 10 10 9 9 8 7 7 6 6 6 6 6 6 5 5 5 5 5 5 5 6 6 6 6 5 5 4 3 3 3 2 1 1 1 1 0 2 3 2 1 1 1 2 2 3 2 3 5 5 3 2 4 7 14 13 12 15
12 11 11 12 12 13 12 13 12 13 13 14 13 12 12 11 11 9 9 9 8 8 7 7 8 8 8 9 9 9 9 9 9 8 7 7 6 6 6 7 6 6 5 5 5 4 5 4 5 5 5 5 6 6 5 3 3 3 2 2 2 3 2 2 2 2 1 2 1 1 2 1 3 4 2 3 4 4 3 3 3 2 7 10 12
11 11 11 11 12 12 12 12 12 13 11 10 11 11 11 11 10 10 9 10 10 8 9 9 8 8 8 9 9 9 8 9 9 8 7 6 6 6 6 7 6 6 5 5 6 5 3 3 4 4 3 3 4 4 5 4 3 3 2 1 2 0 1 1 2 4 4 3 1 1 1 2 1 2 2 1 3 0 4 2 0 3 4 2 7
9 12 11 10 10 10 10 11 11 12 12 11 11 10 10 10 9 8 8 9 9 7 6 6 5 4 5 8 7 7 7 9 9 8 7 5 5 5 5 5 5 4 4 4 4 3 3 3 4 4 1 1 1 1 2 3 3 2 1 2 2 1 1 1 1 2 3 4 4 2 1 1 2 2 3 2 2 2 2 4 3 3 3 2 2
10 10 11 11 11 10 10 10 11 11 12 12 11 10 10 10 10 9 8 10 10 8 7 6 5 6 8 8 6 6 7 7 8 7 6 6 6 5 5 4 4 4 5 4 4 4 5 5 5 5 3 1 1 2 3 4 3 3 2 1 2 3 3 2 2 2 2 3 4 3 3 1 1 2 2 2 2 3 2 2 3 4 4 3 2
11 11 12 12 12 11 11 12 11 11 10 11 12 12 12 11 10 10 11 11 9 8 8 7 7 7 7 8 8 7 10 9 8 7 7 7 6 4 5 5 4 4 5 6 6 6 6 5 3 3 5 4 3 3 3 4 4 1 1 2 2 1 2 3 4 3 4 3 2 3 3 3 2 2 1 2 3 3 3 2 3 2 3 4 4
12 13 13 14 13 13 13 12 10 11 12 11 10 10 10 10 10 10 10 9 9 8 9 8 7 7 8 7 7 8 11 11 8 8 8 8 7 5 6 6 6 5 5 5 7 7 6 6 4 3 4 6 5 5 4 6 2 7 5 3 3 4 7 6 6 6 5 4 3 3 4 4 3 2 1 2 3 4 3 3 2 3 2 3 5
12 14 13 13 13 13 12 11 11 11 11 11 10 10 9 9 9 10 10 9 8 9 8 8 7 6 6 7 6 6 7 7 8 9 7 6 5 5 5 5 7 6 6 7 7 7 6 7 7 7 5 5 2 3 7 8 6 3 2 3 3 3 3 3 6 8 7 5 4 4 4 4 5 3 1 1 3 4 3 3 3 4 3 4 4
11 11 13 14 12 12 12 12 11 11 11 11 10 10 10 9 8 7 9 9 8 7 7 6 8 10 10 8 7 7 6 6 7 8 5 6 7 7 5 6 7 8 7 7 8 7 6 6 8 9 7 4 4 6 7 7 5 8 3 7 1 0 6 7 9 9 11 9 8 9 6 5 3 4 2 5 5 5 4 4 6 5 5 5 5
10 11 12 12 10 14 14 14 12 12 11 11 11 9 9 10 8 2 1 5 3 4 7 6 7 8 7 7 6 6 7 7 8 10 8 7 7 7 7 6 7 7 7 7 8 7 8 8 8 8 9 10 8 4 5 7 9 8 6 4 1 2 8 2 2 2 3 7 12 8 7 6 5 6 6 8 6 6 6 5 5 6 6 6 5
10 10 10 12 11 11 13 13 11 11 11 11 11 9 8 9 10 8 8 9 9 11 11 11 10 7 7 6 6 7 7 6 6 7 7 7 7 8 7 7 7 7 6 6 6 6 9 9 10 10 11 9 9 7 5 6 9 9 10 6 2 6 3 1 2 5 1 6 3 8 7 7 5 8 7 8 8 8 7 7 6 7 6 6 6
10 9 9 10 11 10 12 12 11 10 10 11 12 10 10 10 12 13 12 13 11 9 10 9 9 7 7 9 9 10 10 8 6 6 5 6 7 7 8 7 8 8 8 7 8 9 8 9 8 8 8 8 8 10 12 6 5 7 7 9 3 1 1 3 7 1 6 1 6 4 6 6 6 8 10 10 9 9 8 8 8 7 6 8 7
8 8 9 9 11 11 11 12 10 10 9 10 12 11 12 12 12 12 10 12 11 9 9 9 9 8 9 9 8 8 9 9 7 7 7 6 6 6 7 7 8 9 8 8 9 7 6 7 8 9 9 8 11 10 9 8 11 9 9 11 9 4 3 3 3 4 3 5 4 2 5 5 6 8 7 8 11 10 10 8 9 9 8 9 8
8 9 9 9 9 10 10 11 11 10 10 11 11 11 10 11 12 12 11 10 10 8 7 8 8 8 9 8 8 7 6 7 9 9 8 8 7 7 7 7 7 8 8 8 8 8 9 8 10 7 9 7 8 9 7 9 9 10 8 10 9 9 6 5 1 2 4 6 11 10 7 3 5 7 7 10 11 10 10 11 9 10 9 9 10
6 6 7 8 9 10 11 12 12 10 10 12 10 11 12 9 12 12 13 11 9 9 8 8 8 8 9 8 6 7 7 8 9 9 8 9 9 8 8 7 7 6 7 7 7 7 8 9 10 9 8 10 6 8 10 6 8 8 9 6 8 8 8 6 7 6 6 8 12 9 9 5 6 7 9 10 13 12 10 9 10 11 8 10 8
5 7 7 8 8 9 11 13 13 10 10 11 11 12 13 13 12 12 13 11 10 9 9 9 9 8 9 9 9 8 8 8 8 8 10 10 9 7 7 7 7 6 6 6 7 8 8 8 8 10 12 10 7 10 11 11 7 8 8 9 9 9 11 11 11 9 9 9 7 10 12 12 10 11 9 10 11 12 12 11 12 10 7 11 11
Wind_Direction
131 121 114 114 111 107 106 94 91 86 88 87 76 67 71 77 86 81 76 91 78 82 79 80 79 77 77 81 73 69 69 68 74 69 68 71 68 67 71 67 68 70 70 70 70 71 70 70 70 70 71 72 71 70 70 69 69 70 69 69 69 70 71 71 71 69 69 70 70 71 72 74 75 75 75 73 68 66 67 70 69 65 66 67 67
137 126 123 119 117 114 105 100 97 96 87 86 94 90 85 78 72 86 79 76 79 85 82 79 78 79 79 78 74 73 75 74 75 81 78 75 74 74 75 73 69 69 71 69 68 69 71 72 76 76 76 74 73 74 74 72 70 70 71 69 65 64 64 72 78 79 75 73 72 69 67 72 75 76 77 75 71 68 68 67 67 69 68 68 66
132 129 121 120 119 111 109 106 99 94 95 96 81 78 75 74 79 78 77 75 79 82 85 83 83 85 85 77 75 77 76 79 78 73 76 78 76 75 75 78 84 81 76 74 71 70 70 73 74 75 74 76 74 72 71 71 73 76 74 66 63 62 65 67 77 81 83 81 78 75 69 65 68 72 72 73 74 71 71 71 70 68 68 71 68
131 127 122 120 117 113 109 107 104 97 93 90 93 89 89 96 96 92 84 96 97 93 94 87 84 82 82 83 79 78 76 73 76 70 73 77 77 76 76 77 74 73 74 74 72 74 77 77 77 77 76 75 76 76 76 77 79 81 78 72 61 61 60 58 58 70 77 81 80 77 68 67 65 71 75 74 74 74 73 72 74 75 74 69 68
131 133 128 132 127 115 114 111 111 109 104 101 98 93 91 81 70 66 48 93 98 107 100 91 90 88 85 84 81 79 81 78 72 72 64 67 74 76 77 75 83 81 75 74 76 76 76 77 76 77 77 76 78 79 80 82 82 80 74 63 61 62 58 52 58 64 67 72 74 75 78 76 71 69 75 76 74 73 73 73 71 70 69 68 67
134 136 137 132 125 121 116 115 113 109 105 99 93 94 92 89 87 94 96 86 88 88 95 94 90 84 86 89 88 81 72 74 76 72 77 77 76 72 73 76 82 83 80 79 79 78 77 78 80 82 83 81 81 82 83 83 80 77 70 65 66 65 59 56 53 50 73 74 74 75 72 70 66 64 69 82 78 72 73 73 72 70 69 68 67
137 138 132 131 128 122 125 119 113 112 109 103 101 96 90 84 82 80 59 73 85 101 97 100 96 94 84 83 82 81 80 76 75 72 71 71 75 76 77 76 76 82 85 84 80 78 77 79 82 83 84 84 81 81 82 83 80 74 71 71 67 64 58 53 50 64 77 74 72 75 75 71 73 76 74 74 76 74 72 70 71 73 71 70 68
139 138 133 129 122 126 124 121 118 115 113 107 104 102 102 100 93 81 70 76 78 88 107 99 102 88 92 96 85 85 82 80 79 79 78 75 73 74 74 78 80 80 82 82 81 79 78 78 80 82 83 84 82 82 83 81 76 72 67 63 61 57 60 64 62 61 68 76 76 75 75 74 69 68 65 68 74 77 75 71 67 67 70 67 65
142 141 130 123 121 122 124 125 123 120 115 109 104 102 101 90 84 80 74 83 76 89 106 96 102 98 89 90 92 87 84 86 81 76 73 75 74 72 73 74 73 76 80 82 80 80 80 82 82 83 85 85 85 84 84 80 75 72 68 69 66 64 62 59 71 74 70 71 68 68 71 72 70 67 65 67 66 63 66 66 63 61 63 66 68
140 139 130 127 128 125 127 129 126 118 114 114 106 106 104 101 93 81 80 88 88 90 102 96 87 106 94 92 89 89 87 85 78 74 73 81 77 78 80 82 85 82 79 80 81 81 81 81 82 83 84 86 86 88 86 82 75 68 65 63 59 54 57 64 73 69 74 73 72 68 64 70 74 71 70 69 70 70 71 70 72 70 67 67 69
143 138 132 125 128 127 133 130 123 121 120 116 114 110 106 102 100 93 78 66 93 94 101 93 69 100 103 93 93 95 92 86 81 86 81 81 79 76 72 73 76 78 79 81 83 85 84 84 85 86 86 88 91 93 92 86 77 70 66 64 56 50 56 59 68 71 71 73 76 79 79 73 72 73 75 72 72 71 68 70 70 69 67 69 73
146 135 131 122 122 129 130 130 128 127 124 120 118 113 111 111 105 97 83 79 89 94 99 98 87 85 102 100 97 94 90 92 93 75 82 82 81 81 80 73 74 75 80 84 85 86 87 86 87 88 88 90 92 93 95 88 78 74 66 63 63 59 61 65 70 73 72 72 67 65 62 63 68 71 72 75 75 75 74 73 72 72 73 73 72
143 142 129 129 135 124 131 132 131 131 130 126 121 120 118 115 107 101 100 94 95 94 97 98 94 82 96 99 100 98 96 90 89 91 91 87 86 84 83 85 86 86 84 83 86 88 88 89 87 89 89 91 96 97 93 86 79 72 68 66 63 55 51 63 71 71 71 72 74 74 76 75 73 74 75 74 72 72 72 71 70 69 69 70 69
148 145 141 140 130 127 129 132 134 131 130 129 126 126 124 116 115 111 110 103 105 99 102 106 103 100 96 98 99 99 99 95 84 92 88 92 94 90 87 86 82 77 82 89 90 90 92 93 92 89 94 97 99 97 89 87 81 70 53 41 36 94 99 84 81 74 75 75 72 75 75 76 80 82 82 79 76 74 72 73 73 72 70 69 69
151 155 145 140 138 144 129 132 132 132 130 130 130 127 126 121 120 122 112 104 110 112 110 112 114 109 101 102 100 99 100 94 86 75 98 93 89 87 86 84 85 86 85 85 85 87 94 94 94 96 97 100 97 92 89 88 80 61 45 26 19 6 350 77 68 70 70 76 83 84 83 86 86 83 82 82 81 77 76 75 73 70 70 69 67
152 158 154 146 147 142 151 139 131 132 129 129 131 129 128 131 127 127 121 111 96 114 116 113 117 114 107 103 101 100 97 89 64 41 65 101 92 89 86 84 85 84 84 87 90 90 92 96 97 100 103 101 96 93 90 89 81 68 49 23 20 13 36 86 86 98 92 86 88 87 88 84 83 82 81 77 76 78 78 74 72 72 71 70 67
158 163 163 154 150 155 155 157 142 133 130 128 125 126 128 131 135 130 129 119 104 87 116 127 125 121 110 101 94 86 71 58 50 51 65 92 97 91 91 90 86 90 90 88 92 96 96 99 101 103 105 100 97 96 95 90 83 71 51 37 30 42 67 91 105 75 72 77 77 80 84 87 87 83 80 81 83 84 82 75 71 70 69 72 75
163 172 164 164 158 161 159 157 149 154 144 131 123 127 129 130 128 123 116 111 100 97 92 103 114 110 92 89 80 67 68 63 54 58 72 91 92 92 92 92 91 86 92 94 94 99 101 101 105 105 105 97 94 99 96 91 81 64 55 57 59 52 55 65 79 100 98 92 88 90 86 89 93 93 87 88 93 90 75 76 85 85 82 78 75
168 177 168 167 170 162 163 160 165 164 158 155 150 135 128 124 118 110 95 90 96 105 101 97 101 100 99 95 90 83 77 76 69 72 92 93 90 83 85 93 100 97 102 100 100 98 101 101 104 106 103 96 94 91 93 91 86 78 70 85 85 73 73 86 107 104 100 101 96 96 102 102 86 86 92 85 75 75 81 84 77 76 76 80 81
172 177 171 180 181 166 174 167 170 167 172 156 151 151 131 123 114 106 104 102 107 107 108 104 103 104 107 111 112 114 106 93 98 87 79 83 81 93 96 103 102 103 102 103 103 103 103 107 106 106 98 91 90 78 81 88 89 88 101 100 122 220 87 88 89 85 91 92 103 109 126 109 100 90 88 91 93 86 90 88 89 84 80 78 79
178 181 178 181 186 179 182 168 178 169 169 159 151 146 132 121 110 98 101 104 108 111 109 111 111 115 123 127 154 155 133 125 138 119 99 77 78 84 86 86 94 95 98 102 104 103 106 109 106 91 80 76 69 63 51 61 66 52 54 290 308 332 91 89 73 77 89 99 95 110 94 91 95 103 99 90 90 95 87 82 90 84 83 83 84
182 184 189 183 183 188 188 185 177 172 171 160 152 140 146 157 144 141 134 124 120 129 142 139 141 135 139 169 176 145 145 149 120 135 125 117 86 82 81 81 80 74 81 93 95 92 103 107 101 95 102 109 155 121 95 57 36 1 324 309 284 86 94 84 81 87 90 104 112 100 106 113 99 100 102 97 87 90 95 89 86 88 84 86 86
188 187 190 187 186 187 192 187 186 182 171 167 155 146 161 162 152 155 139 155 148 171 151 154 158 153 175 184 163 141 142 131 111 73 79 69 83 86 84 83 81 77 68 64 68 74 76 80 88 98 111 158 226 146 140 142 140 280 269 256 119 113 101 114 121 126 129 123 123 130 106 103 120 98 81 84 99 105 97 93 90 99 99 91 96
187 190 186 189 189 190 190 191 186 187 178 178 165 162 171 167 163 162 157 166 169 183 155 180 156 168 178 193 135 120 129 95 101 115 117 115 89 89 94 92 91 95 103 91 77 63 75 65 61 65 166 204 193 159 155 167 167 183 211 279 106 124 131 136 143 124 119 135 126 150 137 125 122 112 120 119 91 97 82 94 96 92 92 97 95
189 188 189 190 191 191 188 191 188 188 191 181 178 179 174 170 163 170 178 176 178 177 170 177 161 171 192 173 109 138 149 141 149 155 177 147 150 141 142 152 145 143 186 128 150 138 217 156 149 209 183 221 186 174 177 179 187 206 221 208 141 149 143 130 105 114 121 131 121 355 103 124 128 110 113 107 125 118 112 101 107 106 101 101 104
180 191 191 190 190 192 189 190 191 189 190 189 185 174 174 174 172 168 189 185 180 185 177 183 166 173 195 136 148 161 165 153 169 178 174 162 166 172 181 178 160 165 215 166 165 167 165 161 163 196 198 205 206 188 194 191 197 209 206 205 171 174 163 143 132 124 131 134 118 123 130 159 134 124 119 125 124 107 100 107 115 104 110 113 108
186 196 193 191 191 193 191 192 192 192 192 192 189 173 188 177 180 176 187 190 183 192 188 186 178 176 186 164 178 169 175 163 172 175 180 168 186 178 182 169 168 188 205 181 169 178 188 174 187 202 202 203 204 206 214 201 204 214 205 209 227 137 143 162 135 144 141 140 111 30 139 165 116 122 136 143 126 129 121 115 111 111 117 111 113
193 199 198 195 189 193 192 194 195 192 193 194 193 186 189 181 183 166 203 179 192 194 191 199 175 177 192 179 190 171 180 177 175 180 186 187 185 184 191 179 193 199 179 203 172 192 206 191 202 196 197 197 200 197 187 230 228 217 194 185 152 154 152 290 151 144 145 139 139 154 167 205 152 151 154 151 153 146 127 128 135 119 120 118 119
196 198 199 202 191 195 195 195 196 198 194 193 198 192 191 188 178 181 197 164 204 196 192 186 178 200 193 199 199 184 184 185 185 187 190 194 186 192 189 193 203 194 188 192 183 190 199 197 188 193 197 198 187 188 184 182 186 201 190 151 149 145 154 121 87 150 137 144 162 147 224 266 151 167 160 153 149 155 146 137 148 132 134 130 127
198 194 198 201 197 196 194 196 198 199 198 196 199 197 192 190 164 183 198 169 204 209 190 194 194 194 197 204 204 227 190 192 189 195 194 193 187 190 202 202 198 200 199 205 191 196 197 192 194 197 202 206 199 193 187 182 197 168 167 139 134 148 150 136 129 191 141 164 155 138 187 244 174 151 168 170 154 162 152 159 158 142 143 138 143
198 198 198 198 196 197 202 197 200 198 200 200 201 203 198 198 178 188 198 183 197 208 185 205 203 201 197 196 206 218 221 205 193 200 198 194 196 197 206 202 208 204 205 209 198 204 201 201 194 193 192 198 208 183 203 185 176 155 93 123 124 150 140 144 132 339 201 161 145 161 164 251 274 187 181 159 158 173 163 159 164 155 159 155 159
201 202 197 194 196 200 200 201 199 197 205 202 201 206 205 204 183 190 198 194 197 202 201 206 205 201 202 182 192 203 214 217 214 198 212 198 204 203 209 209 212 206 206 208 195 204 207 206 194 211 203 203 193 183 201 185 173 160 135 112 93 42 9 32 59 17 352 353 139 155 177 190 172 252 201 186 183 178 180 192 173 176 170 177 169
205 203 198 192 196 196 201 200 202 194 200 209 202 206 209 208 197 199 201 199 208 212 205 201 209 209 195 185 195 194 201 212 210 195 204 206 208 207 210 211 213 210 206 201 193 195 203 197 185 201 202 201 199 188 183 190 165 141 148 132 149 97 11 359 1 37 2 328 244 184 181 185 194 151 208 317 238 198 184 187 175 174 178 182 180
199 199 199 196 194 188 189 197 202 199 199 207 210 210 210 210 207 205 206 201 208 207 205 205 205 209 201 193 198 196 195 200 201 194 197 202 203 205 211 212 215 204 201 186 192 196 199 193 191 197 205 210 199 199 187 190 160 142 136 80 28 25 2 315 278 171 207 221 240 255 218 180 196 199 186 169 330 313 225 205 198 199 186 179 197
197 198 199 196 190 190 191 196 193 206 192 207 208 210 209 214 216 210 205 209 218 217 207 205 209 212 207 197 197 201 198 201 198 195 198 203 200 202 206 212 210 198 197 188 195 200 205 198 191 199 201 215 217 206 201 199 171 160 139 125 123 102 323 303 301 260 231 333 312 323 315 221 204 206 190 195 137 90 329 311 197 207 209 206 186
200 197 195 196 194 190 192 202 195 201 195 200 208 210 210 211 212 212 196 200 208 206 196 200 213 215 207 198 199 202 201 202 199 199 197 201 200 205 204 203 201 193 198 194 200 205 208 207 204 200 198 205 211 206 203 199 168 134 96 88 86 145 177 304 334 329 358 322 262 282 275 258 234 229 199 203 196 126 345 325 283 214 214 214 203
198 196 191 192 197 191 185 201 205 206 205 203 206 209 214 214 213 209 201 188 193 199 203 207 213 206 207 217 206 199 201 202 199 200 205 201 206 205 207 199 190 188 193 193 196 204 208 206 208 212 219 210 199 195 191 181 150 121 102 71 33 356 1 8 342 313 301 268 260 241 260 298 354 341 282 314 218 153 130 326 316 244 212 205 209
200 199 193 191 195 192 188 193 199 206 212 210 203 207 213 215 215 214 204 208 205 203 209 212 212 217 216 215 204 195 197 200 198 200 210 214 209 212 210 192 175 180 191 194 197 190 182 191 201 197 210 218 202 194 189 155 120 131 117 101 114 90 11 2 352 329 309 302 281 308 345 356 340 316 328 338 330 133 137 121 219 102 95 133 211
200 199 196 193 193 195 193 192 198 198 201 209 208 207 215 222 224 225 218 212 210 197 198 215 220 207 217 208 192 190 195 198 197 198 200 202 213 217 194 145 156 169 169 178 182 169 150 160 197 179 131 20 340 248 194 103 101 89 74 34 9 25 353 16 3 323 311 316 317 325 313 286 325 321 319 333 305 310 183 177 202 188 133 132 90
198 198 198 195 195 195 194 192 196 197 197 200 202 206 209 213 216 225 231 213 206 193 192 198 198 205 206 203 196 196 199 199 193 188 192 196 203 194 156 142 147 141 155 168 178 190 188 177 199 185 153 92 24 47 84 113 95 82 53 8 6 344 329 338 297 263 267 276 293 306 279 277 240 299 296 300 297 298 281 254 234 206 156 158 182
196 195 197 199 197 194 189 195 191 194 199 199 199 200 201 204 205 218 224 214 207 199 201 204 203 212 209 206 211 210 221 211 198 192 199 202 201 180 157 158 161 156 173 200 196 200 195 189 157 137 170 179 190 146 115 116 121 211 157 265 278 214 272 297 284 263 241 248 261 267 288 281 242 226 255 281 297 293 290 273 280 283 173 161 184
198 196 198 198 198 196 196 195 189 193 200 203 201 204 206 204 199 208 216 221 214 205 207 205 207 201 203 205 210 214 220 218 201 201 203 206 203 186 177 169 167 182 197 205 209 201 176 179 152 169 204 198 199 155 152 118 206 216 210 257 249 227 219 216 228 231 227 218 215 244 255 265 264 231 228 279 276 279 278 293 290 281 247 184 189
197 199 199 198 197 198 199 194 193 191 196 200 199 202 204 204 202 207 206 217 235 227 216 208 182 193 202 204 205 201 208 209 201 210 200 193 185 180 181 170 181 187 196 211 206 196 186 182 178 193 183 203 169 136 173 198 203 131 68 32 263 278 223 248 223 228 207 198 191 208 225 251 251 257 252 281 267 252 246 264 274 270 258 226 202
200 197 196 199 198 199 196 193 193 194 194 197 202 201 200 205 209 211 204 207 218 215 220 226 210 200 207 205 208 202 200 202 199 206 198 199 199 203 191 184 182 190 200 201 198 193 179 182 197 209 200 175 193 201 188 198 192 140 216 209 224 59 297 241 227 228 207 209 201 226 203 216 227 250 244 240 240 250 248 234 237 240 243 236 221
198 196 192 194 196 198 196 193 191 192 195 193 197 200 194 200 205 164 302 185 70 205 203 207 204 197 193 191 199 190 197 201 203 211 203 198 195 199 194 195 197 197 204 214 210 193 191 194 194 201 193 209 216 189 195 196 214 213 190 117 71 263 230 288 31 248 130 203 224 212 209 205 209 220 235 248 241 243 241 234 231 238 235 236 237
198 197 194 194 193 193 192 190 191 190 192 190 188 193 200 196 197 194 201 211 213 210 212 208 210 202 206 194 188 195 209 209 205 206 201 195 201 209 208 200 199 201 202 207 207 205 205 201 201 203 214 205 217 195 198 193 216 219 234 252 265 227 177 209 108 265 151 240 247 205 198 203 184 209 231 238 235 231 231 241 240 242 246 249 243
200 190 192 195 194 191 190 189 189 188 187 183 180 185 201 206 207 206 205 207 211 214 218 219 222 213 216 221 217 211 210 209 204 205 202 198 204 201 200 198 198 197 194 201 212 211 205 203 197 200 203 202 206 225 222 194 186 238 235 233 240 133 312 152 233 337 288 147 229 211 220 200 199 220 231 232 229 232 236 233 240 240 236 242 239
190 186 193 193 193 189 187 185 186 185 179 178 177 183 197 202 200 202 203 209 212 210 205 215 218 221 222 221 222 209 197 199 202 199 205 193 198 203 201 189 194 203 192 207 210 203 204 206 200 204 211 207 209 216 221 199 204 221 207 229 231 211 219 325 1 248 274 295 256 199 245 193 205 229 225 229 227 228 237 234 236 237 236 237 236
190 190 189 187 188 187 186 183 184 183 175 173 175 183 197 200 202 203 206 214 215 216 210 208 214 212 222 219 224 227 200 209 224 219 207 205 191 203 202 203 201 203 201 215 217 214 209 199 207 196 200 199 200 213 219 218 208 228 184 224 231 231 224 231 155 116 233 255 263 258 251 146 233 239 220 230 242 235 230 233 233 236 237 238 233
179 181 181 183 187 187 187 185 186 184 173 172 173 183 195 200 202 205 205 204 209 214 216 211 206 209 217 220 208 222 224 222 223 227 224 221 210 200 204 203 203 208 201 211 205 202 208 208 212 203 200 210 200 208 219 222 216 221 212 202 207 226 241 235 221 220 248 230 255 255 258 233 238 236 222 230 232 232 232 232 236 236 233 238 232
173 180 180 181 180 183 184 184 186 180 173 171 174 185 193 201 204 202 202 202 200 205 209 214 213 198 214 216 214 213 213 217 215 218 223 223 216 192 199 210 214 212 202 195 208 209 213 206 206 211 216 204 199 210 220 233 231 222 216 217 215 211 216 219 224 217 221 235 241 254 257 253 255 276 245 213 219 226 223 222 231 228 215 226 229